﻿_id,日時,10分間移動積算雨量(mm),1時間移動積算雨量(mm),日雨量(mm),累計雨量(mm)
1,2022-03-14T00:00:00,0,0,0,0
2,2022-03-14T00:01:00,0,0,0,0
3,2022-03-14T00:02:00,0,0,0,0
4,2022-03-14T00:03:00,0,0,0,0
5,2022-03-14T00:04:00,0,0,0,0
6,2022-03-14T00:05:00,0,0,0,0
7,2022-03-14T00:06:00,0,0,0,0
8,2022-03-14T00:07:00,0,0,0,0
9,2022-03-14T00:08:00,0,0,0,0
10,2022-03-14T00:09:00,0,0,0,0
11,2022-03-14T00:10:00,0,0,0,0
12,2022-03-14T00:11:00,0,0,0,0
13,2022-03-14T00:12:00,0,0,0,0
14,2022-03-14T00:13:00,0,0,0,0
15,2022-03-14T00:14:00,0,0,0,0
16,2022-03-14T00:15:00,0,0,0,0
17,2022-03-14T00:16:00,0,0,0,0
18,2022-03-14T00:17:00,0,0,0,0
19,2022-03-14T00:18:00,0,0,0,0
20,2022-03-14T00:19:00,0,0,0,0
21,2022-03-14T00:20:00,0,0,0,0
22,2022-03-14T00:21:00,0,0,0,0
23,2022-03-14T00:22:00,0,0,0,0
24,2022-03-14T00:23:00,0,0,0,0
25,2022-03-14T00:24:00,0,0,0,0
26,2022-03-14T00:25:00,0,0,0,0
27,2022-03-14T00:26:00,0,0,0,0
28,2022-03-14T00:27:00,0,0,0,0
29,2022-03-14T00:28:00,0,0,0,0
30,2022-03-14T00:29:00,0,0,0,0
31,2022-03-14T00:30:00,0,0,0,0
32,2022-03-14T00:31:00,0,0,0,0
33,2022-03-14T00:32:00,0,0,0,0
34,2022-03-14T00:33:00,0,0,0,0
35,2022-03-14T00:34:00,0,0,0,0
36,2022-03-14T00:35:00,0,0,0,0
37,2022-03-14T00:36:00,0,0,0,0
38,2022-03-14T00:37:00,0,0,0,0
39,2022-03-14T00:38:00,0,0,0,0
40,2022-03-14T00:39:00,0,0,0,0
41,2022-03-14T00:40:00,0,0,0,0
42,2022-03-14T00:41:00,0,0,0,0
43,2022-03-14T00:42:00,0,0,0,0
44,2022-03-14T00:43:00,0,0,0,0
45,2022-03-14T00:44:00,0,0,0,0
46,2022-03-14T00:45:00,0,0,0,0
47,2022-03-14T00:46:00,0,0,0,0
48,2022-03-14T00:47:00,0,0,0,0
49,2022-03-14T00:48:00,0,0,0,0
50,2022-03-14T00:49:00,0,0,0,0
51,2022-03-14T00:50:00,0,0,0,0
52,2022-03-14T00:51:00,0,0,0,0
53,2022-03-14T00:52:00,0,0,0,0
54,2022-03-14T00:53:00,0,0,0,0
55,2022-03-14T00:54:00,0,0,0,0
56,2022-03-14T00:55:00,0,0,0,0
57,2022-03-14T00:56:00,0,0,0,0
58,2022-03-14T00:57:00,0,0,0,0
59,2022-03-14T00:58:00,0,0,0,0
60,2022-03-14T00:59:00,0,0,0,0
61,2022-03-14T01:00:00,0,0,0,0
62,2022-03-14T01:01:00,0,0,0,0
63,2022-03-14T01:02:00,0,0,0,0
64,2022-03-14T01:03:00,0,0,0,0
65,2022-03-14T01:04:00,0,0,0,0
66,2022-03-14T01:05:00,0,0,0,0
67,2022-03-14T01:06:00,0,0,0,0
68,2022-03-14T01:07:00,0.5,0.5,0.5,0.5
69,2022-03-14T01:08:00,1,1,1,1
70,2022-03-14T01:09:00,1.5,1.5,1.5,1.5
71,2022-03-14T01:10:00,2,2,2,2
72,2022-03-14T01:11:00,2.5,2.5,2.5,2.5
73,2022-03-14T01:12:00,3,3,3,3
74,2022-03-14T01:13:00,3.5,3.5,3.5,3.5
75,2022-03-14T01:14:00,4,4,4,4
76,2022-03-14T01:15:00,4,4,4,4
77,2022-03-14T01:16:00,4.5,4.5,4.5,4.5
78,2022-03-14T01:17:00,4.5,5,5,5
79,2022-03-14T01:18:00,4,5,5,5
80,2022-03-14T01:19:00,4,5.5,5.5,5.5
81,2022-03-14T01:20:00,3.5,5.5,5.5,5.5
82,2022-03-14T01:21:00,3.5,6,6,6
83,2022-03-14T01:22:00,3,6,6,6
84,2022-03-14T01:23:00,2.5,6,6,6
85,2022-03-14T01:24:00,2,6,6,6
86,2022-03-14T01:25:00,2,6,6,6
87,2022-03-14T01:26:00,2,6.5,6.5,6.5
88,2022-03-14T01:27:00,1.5,6.5,6.5,6.5
89,2022-03-14T01:28:00,1.5,6.5,6.5,6.5
90,2022-03-14T01:29:00,1,6.5,6.5,6.5
91,2022-03-14T01:30:00,1,6.5,6.5,6.5
92,2022-03-14T01:31:00,0.5,6.5,6.5,6.5
93,2022-03-14T01:32:00,0.5,6.5,6.5,6.5
94,2022-03-14T01:33:00,1,7,7,7
95,2022-03-14T01:34:00,1,7,7,7
96,2022-03-14T01:35:00,1,7,7,7
97,2022-03-14T01:36:00,0.5,7,7,7
98,2022-03-14T01:37:00,0.5,7,7,7
99,2022-03-14T01:38:00,0.5,7,7,7
100,2022-03-14T01:39:00,0.5,7,7,7
101,2022-03-14T01:40:00,0.5,7,7,7
102,2022-03-14T01:41:00,1,7.5,7.5,7.5
103,2022-03-14T01:42:00,1,7.5,7.5,7.5
104,2022-03-14T01:43:00,0.5,7.5,7.5,7.5
105,2022-03-14T01:44:00,0.5,7.5,7.5,7.5
106,2022-03-14T01:45:00,0.5,7.5,7.5,7.5
107,2022-03-14T01:46:00,0.5,7.5,7.5,7.5
108,2022-03-14T01:47:00,0.5,7.5,7.5,7.5
109,2022-03-14T01:48:00,0.5,7.5,7.5,7.5
110,2022-03-14T01:49:00,1,8,8,8
111,2022-03-14T01:50:00,1,8,8,8
112,2022-03-14T01:51:00,0.5,8,8,8
113,2022-03-14T01:52:00,0.5,8,8,8
114,2022-03-14T01:53:00,0.5,8,8,8
115,2022-03-14T01:54:00,0.5,8,8,8
116,2022-03-14T01:55:00,0.5,8,8,8
117,2022-03-14T01:56:00,0.5,8,8,8
118,2022-03-14T01:57:00,0.5,8,8,8
119,2022-03-14T01:58:00,0.5,8,8,8
120,2022-03-14T01:59:00,0,8,8,8
121,2022-03-14T02:00:00,0,8,8,8
122,2022-03-14T02:01:00,0,8,8,8
123,2022-03-14T02:02:00,0,8,8,8
124,2022-03-14T02:03:00,0,8,8,8
125,2022-03-14T02:04:00,0,8,8,8
126,2022-03-14T02:05:00,0,8,8,8
127,2022-03-14T02:06:00,0,8,8,8
128,2022-03-14T02:07:00,0,7.5,8,8
129,2022-03-14T02:08:00,0,7,8,8
130,2022-03-14T02:09:00,0,6.5,8,8
131,2022-03-14T02:10:00,0,6,8,8
132,2022-03-14T02:11:00,0,5.5,8,8
133,2022-03-14T02:12:00,0,5,8,8
134,2022-03-14T02:13:00,0,4.5,8,8
135,2022-03-14T02:14:00,0,4,8,8
136,2022-03-14T02:15:00,0,4,8,8
137,2022-03-14T02:16:00,0,3.5,8,8
138,2022-03-14T02:17:00,0,3,8,8
139,2022-03-14T02:18:00,0,3,8,8
140,2022-03-14T02:19:00,0,2.5,8,8
141,2022-03-14T02:20:00,0,2.5,8,8
142,2022-03-14T02:21:00,0,2,8,8
143,2022-03-14T02:22:00,0,2,8,8
144,2022-03-14T02:23:00,0,2,8,8
145,2022-03-14T02:24:00,0,2,8,8
146,2022-03-14T02:25:00,0,2,8,8
147,2022-03-14T02:26:00,0,1.5,8,8
148,2022-03-14T02:27:00,0,1.5,8,8
149,2022-03-14T02:28:00,0,1.5,8,8
150,2022-03-14T02:29:00,0,1.5,8,8
151,2022-03-14T02:30:00,0,1.5,8,8
152,2022-03-14T02:31:00,0,1.5,8,8
153,2022-03-14T02:32:00,0,1.5,8,8
154,2022-03-14T02:33:00,0,1,8,8
155,2022-03-14T02:34:00,0,1,8,8
156,2022-03-14T02:35:00,0,1,8,8
157,2022-03-14T02:36:00,0,1,8,8
158,2022-03-14T02:37:00,0,1,8,8
159,2022-03-14T02:38:00,0,1,8,8
160,2022-03-14T02:39:00,0,1,8,8
161,2022-03-14T02:40:00,0,1,8,8
162,2022-03-14T02:41:00,0,0.5,8,8
163,2022-03-14T02:42:00,0,0.5,8,8
164,2022-03-14T02:43:00,0,0.5,8,8
165,2022-03-14T02:44:00,0,0.5,8,8
166,2022-03-14T02:45:00,0,0.5,8,8
167,2022-03-14T02:46:00,0,0.5,8,8
168,2022-03-14T02:47:00,0,0.5,8,8
169,2022-03-14T02:48:00,0,0.5,8,8
170,2022-03-14T02:49:00,0,0,8,8
171,2022-03-14T02:50:00,0,0,8,8
172,2022-03-14T02:51:00,0,0,8,8
173,2022-03-14T02:52:00,0,0,8,8
174,2022-03-14T02:53:00,0,0,8,8
175,2022-03-14T02:54:00,0,0,8,8
176,2022-03-14T02:55:00,0,0,8,8
177,2022-03-14T02:56:00,0,0,8,8
178,2022-03-14T02:57:00,0,0,8,8
179,2022-03-14T02:58:00,0,0,8,8
180,2022-03-14T02:59:00,0,0,8,8
181,2022-03-14T03:00:00,0,0,8,8
182,2022-03-14T03:01:00,0,0,8,8
183,2022-03-14T03:02:00,0,0,8,8
184,2022-03-14T03:03:00,0,0,8,8
185,2022-03-14T03:04:00,0,0,8,8
186,2022-03-14T03:05:00,0,0,8,8
187,2022-03-14T03:06:00,0,0,8,8
188,2022-03-14T03:07:00,0,0,8,8
189,2022-03-14T03:08:00,0,0,8,8
190,2022-03-14T03:09:00,0,0,8,8
191,2022-03-14T03:10:00,0,0,8,8
192,2022-03-14T03:11:00,0,0,8,8
193,2022-03-14T03:12:00,0,0,8,8
194,2022-03-14T03:13:00,0,0,8,8
195,2022-03-14T03:14:00,0,0,8,8
196,2022-03-14T03:15:00,0,0,8,8
197,2022-03-14T03:16:00,0,0,8,8
198,2022-03-14T03:17:00,0,0,8,8
199,2022-03-14T03:18:00,0,0,8,8
200,2022-03-14T03:19:00,0,0,8,8
201,2022-03-14T03:20:00,0,0,8,8
202,2022-03-14T03:21:00,0,0,8,8
203,2022-03-14T03:22:00,0,0,8,8
204,2022-03-14T03:23:00,0,0,8,8
205,2022-03-14T03:24:00,0,0,8,8
206,2022-03-14T03:25:00,0,0,8,8
207,2022-03-14T03:26:00,0,0,8,8
208,2022-03-14T03:27:00,0,0,8,8
209,2022-03-14T03:28:00,0,0,8,8
210,2022-03-14T03:29:00,0,0,8,8
211,2022-03-14T03:30:00,0,0,8,8
212,2022-03-14T03:31:00,0,0,8,8
213,2022-03-14T03:32:00,0,0,8,8
214,2022-03-14T03:33:00,0,0,8,8
215,2022-03-14T03:34:00,0,0,8,8
216,2022-03-14T03:35:00,0,0,8,8
217,2022-03-14T03:36:00,0,0,8,8
218,2022-03-14T03:37:00,0,0,8,8
219,2022-03-14T03:38:00,0,0,8,8
220,2022-03-14T03:39:00,0,0,8,8
221,2022-03-14T03:40:00,0,0,8,8
222,2022-03-14T03:41:00,0,0,8,8
223,2022-03-14T03:42:00,0,0,8,8
224,2022-03-14T03:43:00,0,0,8,8
225,2022-03-14T03:44:00,0,0,8,8
226,2022-03-14T03:45:00,0,0,8,8
227,2022-03-14T03:46:00,0,0,8,8
228,2022-03-14T03:47:00,0,0,8,8
229,2022-03-14T03:48:00,0,0,8,8
230,2022-03-14T03:49:00,0,0,8,8
231,2022-03-14T03:50:00,0,0,8,8
232,2022-03-14T03:51:00,0,0,8,8
233,2022-03-14T03:52:00,0,0,8,8
234,2022-03-14T03:53:00,0,0,8,8
235,2022-03-14T03:54:00,0,0,8,8
236,2022-03-14T03:55:00,0,0,8,8
237,2022-03-14T03:56:00,0,0,8,8
238,2022-03-14T03:57:00,0,0,8,8
239,2022-03-14T03:58:00,0,0,8,8
240,2022-03-14T03:59:00,0,0,8,8
241,2022-03-14T04:00:00,0,0,8,8
242,2022-03-14T04:01:00,0,0,8,8
243,2022-03-14T04:02:00,0,0,8,8
244,2022-03-14T04:03:00,0,0,8,8
245,2022-03-14T04:04:00,0,0,8,8
246,2022-03-14T04:05:00,0,0,8,8
247,2022-03-14T04:06:00,0,0,8,8
248,2022-03-14T04:07:00,0,0,8,8
249,2022-03-14T04:08:00,0,0,8,8
250,2022-03-14T04:09:00,0,0,8,8
251,2022-03-14T04:10:00,0,0,8,8
252,2022-03-14T04:11:00,0,0,8,8
253,2022-03-14T04:12:00,0,0,8,8
254,2022-03-14T04:13:00,0,0,8,8
255,2022-03-14T04:14:00,0,0,8,8
256,2022-03-14T04:15:00,0,0,8,8
257,2022-03-14T04:16:00,0,0,8,8
258,2022-03-14T04:17:00,0,0,8,8
259,2022-03-14T04:18:00,0,0,8,8
260,2022-03-14T04:19:00,0,0,8,8
261,2022-03-14T04:20:00,0,0,8,8
262,2022-03-14T04:21:00,0,0,8,8
263,2022-03-14T04:22:00,0,0,8,8
264,2022-03-14T04:23:00,0,0,8,8
265,2022-03-14T04:24:00,0,0,8,8
266,2022-03-14T04:25:00,0,0,8,8
267,2022-03-14T04:26:00,0,0,8,8
268,2022-03-14T04:27:00,0,0,8,8
269,2022-03-14T04:28:00,0,0,8,8
270,2022-03-14T04:29:00,0,0,8,8
271,2022-03-14T04:30:00,0,0,8,8
272,2022-03-14T04:31:00,0,0,8,8
273,2022-03-14T04:32:00,0,0,8,8
274,2022-03-14T04:33:00,0,0,8,8
275,2022-03-14T04:34:00,0,0,8,8
276,2022-03-14T04:35:00,0,0,8,8
277,2022-03-14T04:36:00,0,0,8,8
278,2022-03-14T04:37:00,0,0,8,8
279,2022-03-14T04:38:00,0,0,8,8
280,2022-03-14T04:39:00,0,0,8,8
281,2022-03-14T04:40:00,0,0,8,8
282,2022-03-14T04:41:00,0,0,8,8
283,2022-03-14T04:42:00,0,0,8,8
284,2022-03-14T04:43:00,0,0,8,8
285,2022-03-14T04:44:00,0,0,8,8
286,2022-03-14T04:45:00,0,0,8,8
287,2022-03-14T04:46:00,0,0,8,8
288,2022-03-14T04:47:00,0,0,8,8
289,2022-03-14T04:48:00,0,0,8,8
290,2022-03-14T04:49:00,0,0,8,8
291,2022-03-14T04:50:00,0,0,8,8
292,2022-03-14T04:51:00,0,0,8,8
293,2022-03-14T04:52:00,0,0,8,8
294,2022-03-14T04:53:00,0,0,8,8
295,2022-03-14T04:54:00,0,0,8,8
296,2022-03-14T04:55:00,0,0,8,8
297,2022-03-14T04:56:00,0,0,8,8
298,2022-03-14T04:57:00,0,0,8,8
299,2022-03-14T04:58:00,0,0,8,8
300,2022-03-14T04:59:00,0,0,8,8
301,2022-03-14T05:00:00,0,0,8,8
302,2022-03-14T05:01:00,0,0,8,8
303,2022-03-14T05:02:00,0,0,8,8
304,2022-03-14T05:03:00,0,0,8,8
305,2022-03-14T05:04:00,0,0,8,8
306,2022-03-14T05:05:00,0,0,8,8
307,2022-03-14T05:06:00,0,0,8,8
308,2022-03-14T05:07:00,0,0,8,8
309,2022-03-14T05:08:00,0,0,8,8
310,2022-03-14T05:09:00,0,0,8,8
311,2022-03-14T05:10:00,0,0,8,8
312,2022-03-14T05:11:00,0,0,8,8
313,2022-03-14T05:12:00,0,0,8,8
314,2022-03-14T05:13:00,0,0,8,8
315,2022-03-14T05:14:00,0,0,8,8
316,2022-03-14T05:15:00,0,0,8,8
317,2022-03-14T05:16:00,0,0,8,8
318,2022-03-14T05:17:00,0,0,8,8
319,2022-03-14T05:18:00,0,0,8,8
320,2022-03-14T05:19:00,0,0,8,8
321,2022-03-14T05:20:00,0,0,8,8
322,2022-03-14T05:21:00,0,0,8,8
323,2022-03-14T05:22:00,0,0,8,8
324,2022-03-14T05:23:00,0,0,8,8
325,2022-03-14T05:24:00,0,0,8,8
326,2022-03-14T05:25:00,0,0,8,8
327,2022-03-14T05:26:00,0,0,8,8
328,2022-03-14T05:27:00,0,0,8,8
329,2022-03-14T05:28:00,0,0,8,8
330,2022-03-14T05:29:00,0,0,8,8
331,2022-03-14T05:30:00,0,0,8,8
332,2022-03-14T05:31:00,0,0,8,8
333,2022-03-14T05:32:00,0,0,8,8
334,2022-03-14T05:33:00,0,0,8,8
335,2022-03-14T05:34:00,0,0,8,8
336,2022-03-14T05:35:00,0,0,8,8
337,2022-03-14T05:36:00,0,0,8,8
338,2022-03-14T05:37:00,0,0,8,8
339,2022-03-14T05:38:00,0,0,8,8
340,2022-03-14T05:39:00,0,0,8,8
341,2022-03-14T05:40:00,0,0,8,8
342,2022-03-14T05:41:00,0,0,8,8
343,2022-03-14T05:42:00,0,0,8,8
344,2022-03-14T05:43:00,0,0,8,8
345,2022-03-14T05:44:00,0,0,8,8
346,2022-03-14T05:45:00,0,0,8,8
347,2022-03-14T05:46:00,0,0,8,8
348,2022-03-14T05:47:00,0,0,8,8
349,2022-03-14T05:48:00,0,0,8,8
350,2022-03-14T05:49:00,0,0,8,8
351,2022-03-14T05:50:00,0,0,8,8
352,2022-03-14T05:51:00,0,0,8,8
353,2022-03-14T05:52:00,0,0,8,8
354,2022-03-14T05:53:00,0,0,8,8
355,2022-03-14T05:54:00,0,0,8,8
356,2022-03-14T05:55:00,0,0,8,8
357,2022-03-14T05:56:00,0,0,8,8
358,2022-03-14T05:57:00,0,0,8,8
359,2022-03-14T05:58:00,0,0,8,8
360,2022-03-14T05:59:00,0,0,8,8
361,2022-03-14T06:00:00,0,0,8,8
362,2022-03-14T06:01:00,0,0,8,8
363,2022-03-14T06:02:00,0,0,8,8
364,2022-03-14T06:03:00,0,0,8,8
365,2022-03-14T06:04:00,0,0,8,8
366,2022-03-14T06:05:00,0,0,8,8
367,2022-03-14T06:06:00,0,0,8,8
368,2022-03-14T06:07:00,0,0,8,8
369,2022-03-14T06:08:00,0,0,8,8
370,2022-03-14T06:09:00,0,0,8,8
371,2022-03-14T06:10:00,0,0,8,8
372,2022-03-14T06:11:00,0,0,8,8
373,2022-03-14T06:12:00,0,0,8,8
374,2022-03-14T06:13:00,0,0,8,8
375,2022-03-14T06:14:00,0,0,8,8
376,2022-03-14T06:15:00,0,0,8,8
377,2022-03-14T06:16:00,0,0,8,8
378,2022-03-14T06:17:00,0,0,8,8
379,2022-03-14T06:18:00,0,0,8,8
380,2022-03-14T06:19:00,0,0,8,8
381,2022-03-14T06:20:00,0,0,8,8
382,2022-03-14T06:21:00,0,0,8,8
383,2022-03-14T06:22:00,0,0,8,8
384,2022-03-14T06:23:00,0,0,8,8
385,2022-03-14T06:24:00,0,0,8,8
386,2022-03-14T06:25:00,0,0,8,8
387,2022-03-14T06:26:00,0,0,8,8
388,2022-03-14T06:27:00,0,0,8,8
389,2022-03-14T06:28:00,0,0,8,8
390,2022-03-14T06:29:00,0,0,8,8
391,2022-03-14T06:30:00,0,0,8,8
392,2022-03-14T06:31:00,0,0,8,8
393,2022-03-14T06:32:00,0,0,8,8
394,2022-03-14T06:33:00,0,0,8,8
395,2022-03-14T06:34:00,0,0,8,8
396,2022-03-14T06:35:00,0,0,8,8
397,2022-03-14T06:36:00,0,0,8,8
398,2022-03-14T06:37:00,0,0,8,8
399,2022-03-14T06:38:00,0,0,8,8
400,2022-03-14T06:39:00,0,0,8,8
401,2022-03-14T06:40:00,0,0,8,8
402,2022-03-14T06:41:00,0,0,8,8
403,2022-03-14T06:42:00,0,0,8,8
404,2022-03-14T06:43:00,0,0,8,8
405,2022-03-14T06:44:00,0,0,8,8
406,2022-03-14T06:45:00,0,0,8,8
407,2022-03-14T06:46:00,0,0,8,8
408,2022-03-14T06:47:00,0,0,8,8
409,2022-03-14T06:48:00,0,0,8,8
410,2022-03-14T06:49:00,0,0,8,8
411,2022-03-14T06:50:00,0,0,8,8
412,2022-03-14T06:51:00,0,0,8,8
413,2022-03-14T06:52:00,0,0,8,8
414,2022-03-14T06:53:00,0,0,8,8
415,2022-03-14T06:54:00,0,0,8,8
416,2022-03-14T06:55:00,0,0,8,8
417,2022-03-14T06:56:00,0,0,8,8
418,2022-03-14T06:57:00,0,0,8,8
419,2022-03-14T06:58:00,0,0,8,8
420,2022-03-14T06:59:00,0,0,8,8
421,2022-03-14T07:00:00,0,0,8,8
422,2022-03-14T07:01:00,0,0,8,8
423,2022-03-14T07:02:00,0,0,8,8
424,2022-03-14T07:03:00,0,0,8,8
425,2022-03-14T07:04:00,0,0,8,8
426,2022-03-14T07:05:00,0,0,8,8
427,2022-03-14T07:06:00,0,0,8,8
428,2022-03-14T07:07:00,0,0,8,8
429,2022-03-14T07:08:00,0,0,8,8
430,2022-03-14T07:09:00,0,0,8,8
431,2022-03-14T07:10:00,0,0,8,8
432,2022-03-14T07:11:00,0,0,8,8
433,2022-03-14T07:12:00,0,0,8,8
434,2022-03-14T07:13:00,0,0,8,8
435,2022-03-14T07:14:00,0,0,8,8
436,2022-03-14T07:15:00,0,0,8,8
437,2022-03-14T07:16:00,0,0,8,8
438,2022-03-14T07:17:00,0,0,8,8
439,2022-03-14T07:18:00,0,0,8,8
440,2022-03-14T07:19:00,0,0,8,8
441,2022-03-14T07:20:00,0,0,8,8
442,2022-03-14T07:21:00,0,0,8,8
443,2022-03-14T07:22:00,0,0,8,8
444,2022-03-14T07:23:00,0,0,8,8
445,2022-03-14T07:24:00,0,0,8,8
446,2022-03-14T07:25:00,0,0,8,8
447,2022-03-14T07:26:00,0,0,8,8
448,2022-03-14T07:27:00,0,0,8,8
449,2022-03-14T07:28:00,0,0,8,8
450,2022-03-14T07:29:00,0,0,8,8
451,2022-03-14T07:30:00,0,0,8,8
452,2022-03-14T07:31:00,0,0,8,8
453,2022-03-14T07:32:00,0,0,8,8
454,2022-03-14T07:33:00,0,0,8,8
455,2022-03-14T07:34:00,0,0,8,8
456,2022-03-14T07:35:00,0,0,8,8
457,2022-03-14T07:36:00,0,0,8,8
458,2022-03-14T07:37:00,0,0,8,8
459,2022-03-14T07:38:00,0,0,8,8
460,2022-03-14T07:39:00,0,0,8,8
461,2022-03-14T07:40:00,0,0,8,8
462,2022-03-14T07:41:00,0,0,8,8
463,2022-03-14T07:42:00,0,0,8,8
464,2022-03-14T07:43:00,0,0,8,8
465,2022-03-14T07:44:00,0,0,8,8
466,2022-03-14T07:45:00,0,0,8,8
467,2022-03-14T07:46:00,0,0,8,8
468,2022-03-14T07:47:00,0,0,8,8
469,2022-03-14T07:48:00,0,0,8,8
470,2022-03-14T07:49:00,0,0,8,8
471,2022-03-14T07:50:00,0,0,8,8
472,2022-03-14T07:51:00,0,0,8,8
473,2022-03-14T07:52:00,0,0,8,8
474,2022-03-14T07:53:00,0,0,8,8
475,2022-03-14T07:54:00,0,0,8,8
476,2022-03-14T07:55:00,0,0,8,8
477,2022-03-14T07:56:00,0,0,8,8
478,2022-03-14T07:57:00,0,0,8,8
479,2022-03-14T07:58:00,0,0,8,8
480,2022-03-14T07:59:00,0,0,8,8
481,2022-03-14T08:00:00,0,0,8,8
482,2022-03-14T08:01:00,0,0,8,8
483,2022-03-14T08:02:00,0,0,8,8
484,2022-03-14T08:03:00,0,0,8,8
485,2022-03-14T08:04:00,0,0,8,8
486,2022-03-14T08:05:00,0,0,8,8
487,2022-03-14T08:06:00,0,0,8,8
488,2022-03-14T08:07:00,0,0,8,8
489,2022-03-14T08:08:00,0,0,8,8
490,2022-03-14T08:09:00,0,0,8,8
491,2022-03-14T08:10:00,0,0,8,8
492,2022-03-14T08:11:00,0,0,8,8
493,2022-03-14T08:12:00,0,0,8,8
494,2022-03-14T08:13:00,0,0,8,8
495,2022-03-14T08:14:00,0,0,8,8
496,2022-03-14T08:15:00,0,0,8,8
497,2022-03-14T08:16:00,0,0,8,8
498,2022-03-14T08:17:00,0,0,8,8
499,2022-03-14T08:18:00,0,0,8,8
500,2022-03-14T08:19:00,0,0,8,8
501,2022-03-14T08:20:00,0,0,8,8
502,2022-03-14T08:21:00,0,0,8,8
503,2022-03-14T08:22:00,0,0,8,8
504,2022-03-14T08:23:00,0,0,8,8
505,2022-03-14T08:24:00,0,0,8,8
506,2022-03-14T08:25:00,0,0,8,8
507,2022-03-14T08:26:00,0,0,8,8
508,2022-03-14T08:27:00,0,0,8,8
509,2022-03-14T08:28:00,0,0,8,8
510,2022-03-14T08:29:00,0,0,8,8
511,2022-03-14T08:30:00,0,0,8,8
512,2022-03-14T08:31:00,0,0,8,8
513,2022-03-14T08:32:00,0,0,8,8
514,2022-03-14T08:33:00,0,0,8,8
515,2022-03-14T08:34:00,0,0,8,8
516,2022-03-14T08:35:00,0,0,8,8
517,2022-03-14T08:36:00,0,0,8,8
518,2022-03-14T08:37:00,0,0,8,8
519,2022-03-14T08:38:00,0,0,8,8
520,2022-03-14T08:39:00,0,0,8,8
521,2022-03-14T08:40:00,0,0,8,8
522,2022-03-14T08:41:00,0,0,8,8
523,2022-03-14T08:42:00,0,0,8,8
524,2022-03-14T08:43:00,0,0,8,8
525,2022-03-14T08:44:00,0,0,8,8
526,2022-03-14T08:45:00,0,0,8,8
527,2022-03-14T08:46:00,0,0,8,8
528,2022-03-14T08:47:00,0,0,8,8
529,2022-03-14T08:48:00,0,0,8,8
530,2022-03-14T08:49:00,0,0,8,8
531,2022-03-14T08:50:00,0,0,8,8
532,2022-03-14T08:51:00,0,0,8,8
533,2022-03-14T08:52:00,0,0,8,8
534,2022-03-14T08:53:00,0,0,8,8
535,2022-03-14T08:54:00,0,0,8,8
536,2022-03-14T08:55:00,0,0,8,8
537,2022-03-14T08:56:00,0,0,8,8
538,2022-03-14T08:57:00,0,0,8,8
539,2022-03-14T08:58:00,0,0,8,8
540,2022-03-14T08:59:00,0,0,8,8
541,2022-03-14T09:00:00,0,0,8,8
542,2022-03-14T09:01:00,0,0,8,8
543,2022-03-14T09:02:00,0,0,8,8
544,2022-03-14T09:03:00,0,0,8,8
545,2022-03-14T09:04:00,0,0,8,8
546,2022-03-14T09:05:00,0,0,8,8
547,2022-03-14T09:06:00,0,0,8,8
548,2022-03-14T09:07:00,0,0,8,8
549,2022-03-14T09:08:00,0,0,8,8
550,2022-03-14T09:09:00,0,0,8,8
551,2022-03-14T09:10:00,0,0,8,8
552,2022-03-14T09:11:00,0,0,8,8
553,2022-03-14T09:12:00,0,0,8,8
554,2022-03-14T09:13:00,0,0,8,8
555,2022-03-14T09:14:00,0,0,8,8
556,2022-03-14T09:15:00,0,0,8,8
557,2022-03-14T09:16:00,0,0,8,8
558,2022-03-14T09:17:00,0,0,8,8
559,2022-03-14T09:18:00,0,0,8,8
560,2022-03-14T09:19:00,0,0,8,8
561,2022-03-14T09:20:00,0,0,8,8
562,2022-03-14T09:21:00,0,0,8,8
563,2022-03-14T09:22:00,0,0,8,8
564,2022-03-14T09:23:00,0,0,8,8
565,2022-03-14T09:24:00,0,0,8,8
566,2022-03-14T09:25:00,0,0,8,8
567,2022-03-14T09:26:00,0,0,8,8
568,2022-03-14T09:27:00,0,0,8,8
569,2022-03-14T09:28:00,0,0,8,8
570,2022-03-14T09:29:00,0,0,8,8
571,2022-03-14T09:30:00,0,0,8,8
572,2022-03-14T09:31:00,0,0,8,8
573,2022-03-14T09:32:00,0,0,8,8
574,2022-03-14T09:33:00,0,0,8,8
575,2022-03-14T09:34:00,0,0,8,8
576,2022-03-14T09:35:00,0,0,8,8
577,2022-03-14T09:36:00,0,0,8,8
578,2022-03-14T09:37:00,0,0,8,8
579,2022-03-14T09:38:00,0,0,8,8
580,2022-03-14T09:39:00,0,0,8,8
581,2022-03-14T09:40:00,0,0,8,8
582,2022-03-14T09:41:00,0,0,8,8
583,2022-03-14T09:42:00,0,0,8,8
584,2022-03-14T09:43:00,0,0,8,8
585,2022-03-14T09:44:00,0,0,8,8
586,2022-03-14T09:45:00,0,0,8,8
587,2022-03-14T09:46:00,0,0,8,8
588,2022-03-14T09:47:00,0,0,8,8
589,2022-03-14T09:48:00,0,0,8,8
590,2022-03-14T09:49:00,0,0,8,8
591,2022-03-14T09:50:00,0,0,8,8
592,2022-03-14T09:51:00,0,0,8,8
593,2022-03-14T09:52:00,0,0,8,8
594,2022-03-14T09:53:00,0,0,8,8
595,2022-03-14T09:54:00,0,0,8,8
596,2022-03-14T09:55:00,0,0,8,8
597,2022-03-14T09:56:00,0,0,8,8
598,2022-03-14T09:57:00,0,0,8,8
599,2022-03-14T09:58:00,0,0,8,8
600,2022-03-14T09:59:00,0,0,8,8
601,2022-03-14T10:00:00,0,0,8,8
602,2022-03-14T10:01:00,0,0,8,8
603,2022-03-14T10:02:00,0,0,8,8
604,2022-03-14T10:03:00,0,0,8,8
605,2022-03-14T10:04:00,0,0,8,8
606,2022-03-14T10:05:00,0,0,8,8
607,2022-03-14T10:06:00,0,0,8,8
608,2022-03-14T10:07:00,0,0,8,8
609,2022-03-14T10:08:00,0,0,8,8
610,2022-03-14T10:09:00,0,0,8,8
611,2022-03-14T10:10:00,0,0,8,8
612,2022-03-14T10:11:00,0,0,8,8
613,2022-03-14T10:12:00,0,0,8,8
614,2022-03-14T10:13:00,0,0,8,8
615,2022-03-14T10:14:00,0,0,8,8
616,2022-03-14T10:15:00,0,0,8,8
617,2022-03-14T10:16:00,0,0,8,8
618,2022-03-14T10:17:00,0,0,8,8
619,2022-03-14T10:18:00,0,0,8,8
620,2022-03-14T10:19:00,0,0,8,8
621,2022-03-14T10:20:00,0,0,8,8
622,2022-03-14T10:21:00,0,0,8,8
623,2022-03-14T10:22:00,0,0,8,8
624,2022-03-14T10:23:00,0,0,8,8
625,2022-03-14T10:24:00,0,0,8,8
626,2022-03-14T10:25:00,0,0,8,8
627,2022-03-14T10:26:00,0,0,8,8
628,2022-03-14T10:27:00,0,0,8,8
629,2022-03-14T10:28:00,0,0,8,8
630,2022-03-14T10:29:00,0,0,8,8
631,2022-03-14T10:30:00,0,0,8,8
632,2022-03-14T10:31:00,0,0,8,8
633,2022-03-14T10:32:00,0,0,8,8
634,2022-03-14T10:33:00,0,0,8,8
635,2022-03-14T10:34:00,0,0,8,8
636,2022-03-14T10:35:00,0,0,8,8
637,2022-03-14T10:36:00,0,0,8,8
638,2022-03-14T10:37:00,0,0,8,8
639,2022-03-14T10:38:00,0,0,8,8
640,2022-03-14T10:39:00,0,0,8,8
641,2022-03-14T10:40:00,0,0,8,8
642,2022-03-14T10:41:00,0,0,8,8
643,2022-03-14T10:42:00,0,0,8,8
644,2022-03-14T10:43:00,0,0,8,8
645,2022-03-14T10:44:00,0,0,8,8
646,2022-03-14T10:45:00,0,0,8,8
647,2022-03-14T10:46:00,0,0,8,8
648,2022-03-14T10:47:00,0,0,8,8
649,2022-03-14T10:48:00,0,0,8,8
650,2022-03-14T10:49:00,0,0,8,8
651,2022-03-14T10:50:00,0,0,8,8
652,2022-03-14T10:51:00,0,0,8,8
653,2022-03-14T10:52:00,0,0,8,8
654,2022-03-14T10:53:00,0,0,8,8
655,2022-03-14T10:54:00,0,0,8,8
656,2022-03-14T10:55:00,0,0,8,8
657,2022-03-14T10:56:00,0,0,8,8
658,2022-03-14T10:57:00,0,0,8,8
659,2022-03-14T10:58:00,0,0,8,8
660,2022-03-14T10:59:00,0,0,8,8
661,2022-03-14T11:00:00,0,0,8,8
662,2022-03-14T11:01:00,0,0,8,8
663,2022-03-14T11:02:00,0,0,8,8
664,2022-03-14T11:03:00,0,0,8,8
665,2022-03-14T11:04:00,0,0,8,8
666,2022-03-14T11:05:00,0,0,8,8
667,2022-03-14T11:06:00,0,0,8,8
668,2022-03-14T11:07:00,0,0,8,8
669,2022-03-14T11:08:00,0,0,8,8
670,2022-03-14T11:09:00,0,0,8,8
671,2022-03-14T11:10:00,0,0,8,8
672,2022-03-14T11:11:00,0,0,8,8
673,2022-03-14T11:12:00,0,0,8,8
674,2022-03-14T11:13:00,0,0,8,8
675,2022-03-14T11:14:00,0,0,8,8
676,2022-03-14T11:15:00,0,0,8,8
677,2022-03-14T11:16:00,0,0,8,8
678,2022-03-14T11:17:00,0,0,8,8
679,2022-03-14T11:18:00,0,0,8,8
680,2022-03-14T11:19:00,0,0,8,8
681,2022-03-14T11:20:00,0,0,8,8
682,2022-03-14T11:21:00,0,0,8,8
683,2022-03-14T11:22:00,0,0,8,8
684,2022-03-14T11:23:00,0,0,8,8
685,2022-03-14T11:24:00,0,0,8,8
686,2022-03-14T11:25:00,0,0,8,8
687,2022-03-14T11:26:00,0,0,8,8
688,2022-03-14T11:27:00,0,0,8,8
689,2022-03-14T11:28:00,0,0,8,8
690,2022-03-14T11:29:00,0,0,8,8
691,2022-03-14T11:30:00,0,0,8,8
692,2022-03-14T11:31:00,0,0,8,8
693,2022-03-14T11:32:00,0,0,8,8
694,2022-03-14T11:33:00,0,0,8,8
695,2022-03-14T11:34:00,0,0,8,8
696,2022-03-14T11:35:00,0,0,8,8
697,2022-03-14T11:36:00,0,0,8,8
698,2022-03-14T11:37:00,0,0,8,8
699,2022-03-14T11:38:00,0,0,8,8
700,2022-03-14T11:39:00,0,0,8,8
701,2022-03-14T11:40:00,0,0,8,8
702,2022-03-14T11:41:00,0,0,8,8
703,2022-03-14T11:42:00,0,0,8,8
704,2022-03-14T11:43:00,0,0,8,8
705,2022-03-14T11:44:00,0,0,8,8
706,2022-03-14T11:45:00,0,0,8,8
707,2022-03-14T11:46:00,0,0,8,8
708,2022-03-14T11:47:00,0,0,8,8
709,2022-03-14T11:48:00,0,0,8,8
710,2022-03-14T11:49:00,0,0,8,8
711,2022-03-14T11:50:00,0,0,8,8
712,2022-03-14T11:51:00,0,0,8,8
713,2022-03-14T11:52:00,0,0,8,8
714,2022-03-14T11:53:00,0,0,8,8
715,2022-03-14T11:54:00,0,0,8,8
716,2022-03-14T11:55:00,0,0,8,8
717,2022-03-14T11:56:00,0,0,8,8
718,2022-03-14T11:57:00,0,0,8,8
719,2022-03-14T11:58:00,0,0,8,8
720,2022-03-14T11:59:00,0,0,8,8
721,2022-03-14T12:00:00,0,0,8,8
722,2022-03-14T12:01:00,0,0,8,8
723,2022-03-14T12:02:00,0,0,8,8
724,2022-03-14T12:03:00,0,0,8,8
725,2022-03-14T12:04:00,0,0,8,8
726,2022-03-14T12:05:00,0,0,8,8
727,2022-03-14T12:06:00,0,0,8,8
728,2022-03-14T12:07:00,0,0,8,8
729,2022-03-14T12:08:00,0,0,8,8
730,2022-03-14T12:09:00,0,0,8,8
731,2022-03-14T12:10:00,0,0,8,8
732,2022-03-14T12:11:00,0,0,8,8
733,2022-03-14T12:12:00,0,0,8,8
734,2022-03-14T12:13:00,0,0,8,8
735,2022-03-14T12:14:00,0,0,8,8
736,2022-03-14T12:15:00,0,0,8,8
737,2022-03-14T12:16:00,0,0,8,8
738,2022-03-14T12:17:00,0,0,8,8
739,2022-03-14T12:18:00,0,0,8,8
740,2022-03-14T12:19:00,0,0,8,8
741,2022-03-14T12:20:00,0,0,8,8
742,2022-03-14T12:21:00,0,0,8,8
743,2022-03-14T12:22:00,0,0,8,8
744,2022-03-14T12:23:00,0,0,8,8